Terminal Aerodrome Forecast
Issued by NWS

Home | Current Version | Previous Version | Text Only | Print | Product List | Glossary On
Versions: 1 2 3 4 5 6 7 8 9 10 11 12 13 14 15 16 17 18 19 20 21 22 23
000
FTUS43 KIND 281100
TAFLAF
TAF
KLAF 281137Z 2812/2912 23004KT P6SM FEW015 OVC080
      TEMPO 2812/2814 5SM -SN OVC015
     FM281500 17010KT P6SM BKN080
     FM281700 17012G20KT P6SM BKN080
     FM282300 18009KT P6SM BKN200
     FM291100 20012KT P6SM BKN030
      AMD LTD TO CLD VIS AND WIND TIL 281400=

USA.gov is the U.S. government's official web portal to all federal, state and local government web resources and services.